Location: Unspecified
(0.0000°N, 0.0000°E)
Time: 17:08:17
(UTC+00:00)

O3B FM3 - Visible Passes

Search period start: 15 May 2026 00:00
Search period end: 25 May 2026 00:00
Orbit: 8062 x 8070 km, 0.1° (Epoch: 15 May)

Date Brightness Start Highest point End Pass type
(mag) Time Alt. Az. Time Alt. Az. Time Alt. Az.
15 May ? 01:29:05 10° W 02:23:20 90° S 03:17:34 10° E visible
15 May ? 19:29:05 10° W 20:23:18 90° S 20:51:09 43° E visible
16 May ? 01:29:05 10° W 02:23:20 90° S 03:17:34 10° E visible
16 May ? 19:29:05 10° W 20:23:17 90° S 20:51:20 43° E visible
17 May ? 01:29:04 10° W 02:23:20 90° S 03:17:34 10° E visible
17 May ? 19:29:04 10° W 20:23:17 90° S 20:51:32 43° E visible
18 May ? 01:29:04 10° W 02:23:20 90° S 03:17:34 10° E visible
18 May ? 19:29:04 10° W 20:23:17 90° S 20:51:44 43° E visible
19 May ? 01:29:04 10° W 02:23:20 90° S 03:17:34 10° E visible
19 May ? 19:29:04 10° W 20:23:17 90° S 20:51:57 42° E visible
20 May ? 01:29:04 10° W 02:23:20 90° S 03:17:33 10° E visible
20 May ? 19:29:04 10° W 20:23:17 90° S 20:52:09 42° E visible
21 May ? 01:29:04 10° W 02:23:19 90° S 03:17:33 10° E visible
21 May ? 19:29:04 10° W 20:23:17 90° S 20:52:21 42° E visible
22 May ? 01:29:04 10° W 02:23:19 90° S 03:17:33 10° E visible
22 May ? 19:29:04 10° W 20:23:16 90° S 20:52:33 41° E visible
23 May ? 01:29:04 10° W 02:23:19 90° S 03:17:33 10° E visible
23 May ? 19:29:03 10° W 20:23:16 90° S 20:52:45 41° E visible
24 May ? 01:29:03 10° W 02:23:19 90° S 03:17:33 10° E visible
24 May ? 19:29:03 10° W 20:23:16 90° S 20:52:58 41° E visible
